Scottsbluff, NE

11:02 AM MDT on July 24, 2017 (GMT -0600)
Heilig

Weather History for KBFF - July, 2013

Change the Weather History Date:

Tuesday, July 30, 2013

  Actual Average Record
Temperature  
Mean Temperature 76 °F 74 °F  
Max Temperature 94 °F 90 °F 104 °F (1934)
Min Temperature 58 °F 59 °F 44 °F (2009)
Degree Days  
Heating Degree Days 0 0  
Month to date heating degree days 2 1  
Since 1 June heating degree days 23 61  
Since 1 July heating degree days 2 1  
Cooling Degree Days 11 10  
Month to date cooling degree days 309 280  
Year to date cooling degree days 558 429  
Since 1 June cooling degree days 504 406  
Growing Degree Days 25 (Base 50)    
Moisture  
Dew Point 52 °F    
Average Humidity 53    
Maximum Humidity 87    
Minimum Humidity 18    
Precipitation  
Precipitation 0.06 in 0.06 in 1.30 in (1997)
Month to date precipitation 0.84 1.78  
Year to date precipitation 7.02 10.95  
Snow  
Snow 0.00 in 0.00 in - ()
Month to date snowfall 0.0 0.0  
Since 1 July snowfall 0.0 0.0  
Snow Depth 0.00 in    
Sea Level Pressure  
Sea Level Pressure 30.05 in    
Wind  
Wind Speed 6 mph (NNW)    
Max Wind Speed 29 mph    
Max Gust Speed 40 mph    
Visibility 8 miles    
Events Rain , Thunderstorm    
T = Trace of Precipitation, MM = Missing Value Source: NWS Daily Summary

Daily Weather History Graph

Daily Weather History Graph

Search for Another Location

Airport or City:

Trip Planner

Search our weather history database for the weather conditions in past years. The results will help you decide how hot, cold, wet, or windy it might be!

Date:

Astronomy

Jul. 30, 2013 Rise Set
Actual Time 5:46 AM MDT 8:14 PM MDT
Civil Twilight 5:14 AM MDT 8:46 PM MDT
Nautical Twilight 4:35 AM MDT 9:25 PM MDT
Astronomical Twilight 3:51 AM MDT 10:09 PM MDT
Moon 12:06 AM MDT (7/30) 2:36 PM MDT (7/30)
Length of Visible Light 15h 31m
Length of Day
14h 28m
Last Quarter, 40% of the Moon is Illuminated
Jul 30
Last Quarter
Aug 6
New
Aug 14
First Quarter
Aug 20
Full
Aug 28
Last Quarter

Hourly Weather History & Observations

Time (MDT) Temp. Heat Index Dew Point Humidity Pressure Visibility Wind Dir Wind Speed Gust Speed Precip Events Conditions
12:53 AM 66.0 °F - 62.1 °F 87% 30.02 in 9.0 mi NW 4.6 mph - N/A   Clear
1:53 AM 64.0 °F - 60.1 °F 87% 30.02 in 9.0 mi Calm Calm - N/A   Clear
2:53 AM 62.1 °F - 57.9 °F 86% 30.04 in 10.0 mi WNW 3.5 mph - N/A   Clear
3:53 AM 62.1 °F - 55.9 °F 80% 30.04 in 10.0 mi NW 3.5 mph - N/A   Clear
4:53 AM 61.0 °F - - N/A% 30.04 in 10.0 mi Calm Calm - N/A   Clear
5:53 AM 57.9 °F - - N/A% 30.06 in 10.0 mi NNW 5.8 mph - N/A   Clear
6:53 AM 61.0 °F - - N/A% 30.07 in 10.0 mi NW 3.5 mph - N/A   Clear
7:53 AM 66.0 °F - 55.0 °F 68% 30.07 in 10.0 mi NW 5.8 mph - N/A   Clear
8:53 AM 71.1 °F - 54.0 °F 55% 30.06 in 10.0 mi NW 5.8 mph - N/A   Clear
9:53 AM 75.0 °F - 55.9 °F 51% 30.05 in 10.0 mi North 3.5 mph - N/A   Clear
10:53 AM 80.1 °F 80.4 °F 57.0 °F 45% 30.04 in 10.0 mi Calm Calm - N/A   Clear
11:53 AM 82.0 °F 81.4 °F 55.0 °F 39% 30.03 in 10.0 mi Calm Calm - N/A   Clear
12:53 PM 88.0 °F - 46.9 °F 24% 30.01 in 10.0 mi WNW 11.5 mph - N/A   Clear
1:53 PM 89.1 °F - 46.9 °F 23% 29.99 in 10.0 mi Variable 6.9 mph - N/A   Clear
2:53 PM 91.0 °F - 45.0 °F 20% 29.97 in 10.0 mi NW 8.1 mph - N/A   Clear
3:53 PM 91.9 °F - 42.1 °F 18% 29.95 in 10.0 mi WNW 5.8 mph - N/A   Clear
4:53 PM 91.9 °F - 41.0 °F 17% 29.94 in 6.0 mi WNW 3.5 mph - N/A   Haze
5:53 PM 91.9 °F - 41.0 °F 17% 29.94 in 2.5 mi Variable 4.6 mph - N/A   Haze
6:05 PM 91.4 °F - 42.8 °F 18% 30.08 in 5.0 mi Calm Calm - N/A   Haze
6:53 PM 88.0 °F - 45.0 °F 22% 29.95 in 7.0 mi Calm Calm - N/A   Partly Cloudy
7:09 PM 86.0 °F - 46.4 °F 25% 30.11 in 10.0 mi North 12.7 mph 17.3 mph N/A Thunderstorm Mostly Cloudy
7:24 PM 71.6 °F - 53.6 °F 53% 30.15 in 3.0 mi WSW 23.0 mph 40.3 mph 0.00 in Rain Rain
7:26 PM 73.4 °F - 55.4 °F 53% 30.14 in 2.0 mi South 16.1 mph 40.3 mph 0.03 in Rain Heavy Rain
7:29 PM 77.0 °F - 59.0 °F 54% 30.13 in 2.5 mi ESE 16.1 mph 33.4 mph 0.05 in Rain , Thunderstorm Heavy Rain
7:38 PM 77.0 °F - 60.8 °F 57% 30.14 in 10.0 mi NNW 10.4 mph 25.3 mph 0.06 in Rain , Thunderstorm Light Rain
7:53 PM 73.0 °F - 60.1 °F 64% 30.03 in 10.0 mi North 11.5 mph 20.7 mph 0.06 in   Partly Cloudy
8:53 PM 71.1 °F - 51.1 °F 49% 30.05 in 10.0 mi NE 16.1 mph - N/A Thunderstorm Clear
9:14 PM 69.8 °F - 51.8 °F 53% 30.18 in 10.0 mi NNE 17.3 mph 29.9 mph N/A   Clear
9:53 PM 69.1 °F - 54.0 °F 58% 30.06 in 10.0 mi NE 16.1 mph - N/A   Clear
10:53 PM 66.9 °F - 57.0 °F 70% 30.07 in 10.0 mi SSE 6.9 mph - N/A   Scattered Clouds
11:53 PM 69.1 °F - 55.0 °F 61% 30.10 in 10.0 mi North 8.1 mph - 0.00 in   Scattered Clouds